sat.trackr.live / text

‹ back to catalog

STARLINK-34327

NORAD 64208 · 2025-117F

PAYLOAD ACTIVE UNKNOWN

§ Identity

Operator
Country
US
Launch date
2025-05-31
Launch site
AFWTR
Launch vehicle
Mass (kg)
RCS (m²)

Purposes: comms

External: N2YO · Heavens-Above · Gunter

§ Orbital elements

Epoch: 2026-05-25T00:06:39.218112Z

Period
94.11 min
Inclination
53.1586°
Eccentricity
0.0001194
Mean motion
15.30203820 rev/d
Perigee alt
474.4 km
Apogee alt
476.0 km
Semi-major
6,853.3 km
B*
3.7027e-4
RAAN
44.8637°
Arg perigee
78.0882°
Mean anomaly
282.0252°
Rev number
5,517

§ Raw data

STARLINK-343271 64208U 25117F   26145.00462058  .00010624  00000+0  37027-3 0  99932 64208  53.1586  44.8637 0001194  78.0882 282.0252 15.30203820 55173

JSON: /api/v1/satellites/64208 · /tle

For live sub-satellite position, see the globe view (requires WebGL).

§ Visibility from observer

Set your observer location to see the next 7 days of passes ≥ 10°. The values pass through the URL so the page stays shareable.

No JS? Fill the form by hand. The geolocation button needs JavaScript.